Location: Unnamed
(53.9021°N, 27.5568°E)
Time: 19:28:14
(UTC+03:00)

STARLINK-73 - Pass Details

Date: 26 January 2020
Orbit: 528 x 531 km, 53.0° (Epoch: 25 February)

Event Time Altitude Azimuth Distance (km) Brightness Sun altitude
Exits shadow 07:01:20 36° 236° (SW) 858 4.2 -18.2°
Maximum altitude 07:02:50 66° 166° (SSE) 581 3.7 -17.9°
Drops below altitude 10° 07:06:50 10° 84° (E) 1,783 7.4 -17.4°
Sets 07:09:04 0° 82° (E) 2,675 8.6 -17.0°
